Tracking 22438 objects as of 25-Feb-2021
HD Live streaming from Space Station
objects crossing your sky now

FREGAT DEB

Track FREGAT DEB now!
10-day predictions


NORAD ID: 45979
Int'l Code: 2011-037GL
Perigee: 709.6 km
Apogee: 4,041.7 km
Inclination: 51.5 °
Period: 135.7 minutes
Semi major axis: 8746 km
RCS: Unknown
Launch date: July 18, 2011
Source: Commonwealth of Independent States (former USSR) (CIS)
Launch site: TYURATAM MISSILE AND SPACE COMPLEX (TTMTR)

Note: This is SATELLITE DEBRIS
aabbcc
Your satellite tracking list
Your tracking list is empty




NASA's NSSDC Master Catalog

Two Line Element Set (TLE):
1 45979U 11037GL  21055.31933095 -.00000639  00000-0 -10172-2 0  9995
2 45979  51.5064 168.2738 1904802 101.0285 280.9481 10.61304831 22938
Source of the keplerian elements: AFSPC